FW5887 Weather Reports


time (UTC)temp
C
wind
direction
speed
KPH
gust
KPH
rain 1hr
cm
rain 24hr
cm
rain mn
cm
humidity
%
barometer
mb
20260504081600 7 152 0.0 0.0 0.00 0.00 0.00 77 1009.6
20260504080607 7 194 0.0 0.0 0.00 0.00 0.00 77 1009.5
20260504050309 8 225 0.0 1.6 0.00 0.00 0.00 72 1010.2
20260504044336 8 248 1.6 9.7 0.00 0.00 0.00 71 1010.2
20260504042210 8 259 1.6 8.0 0.00 0.00 0.00 67 1010.4
20260504041218 8 271 1.6 9.7 0.00 0.00 0.00 64 1010.5
20260504040145 8 278 1.6 9.7 0.00 0.00 0.00 61 1010.3
20260504035117 8 277 1.6 8.0 0.00 0.00 0.00 59 1010.3
20260504034121 8 255 1.6 6.4 0.00 0.00 0.00 58 1010.3
20260504033128 8 269 1.6 4.8 0.00 0.00 0.00 56 1010.3
20260504032117 8 269 0.0 4.8 0.00 0.00 0.00 54 1010.4
20260504031106 7 264 0.0 3.2 0.00 0.00 0.00 53 1010.2
20260504030053 7 264 0.0 0.0 0.00 0.00 0.00 54 1010.2
20260504025054 7 274 0.0 0.0 0.00 0.00 0.00 50 1010.3
20260504024030 7 259 0.0 0.0 0.00 0.00 0.00 51 1010.2
20260504023033 6 239 0.0 0.0 0.00 0.00 0.00 52 1010.1
20260504022011 6 239 0.0 0.0 0.00 0.00 0.00 52 1010.2
20260504020948 6 239 0.0 0.0 0.00 0.00 0.00 53 1010.2
20260504014823 6 239 0.0 0.0 0.00 0.00 0.00 50 1010.3
20260504013756 6 222 0.0 0.0 0.00 0.00 0.00 51 1010.4
20260504012734 7 222 0.0 0.0 0.00 0.00 0.00 48 1010.3
20260504011745 7 236 0.0 0.0 0.00 0.00 0.00 44 1010.1
20260504010810 7 259 0.0 0.0 0.00 0.00 0.00 44 1010.0
20260504003508 8 264 0.0 0.0 0.00 0.00 0.00 44 1009.5
20260504002529 8 243 0.0 1.6 0.00 0.00 0.00 43 1009.4
20260504001533 8 262 0.0 0.0 0.00 0.00 0.00 43 1009.3
20260503233045 10 237 0.0 0.0 0.00 0.00 0.00 46 1008.6
20260503230943 10 252 0.0 0.0 0.00 0.00 0.00 42 1008.4
20260503225945 10 257 0.0 0.0 0.00 0.00 0.00 42 1008.4
20260503224950 11 259 0.0 8.0 0.00 0.00 0.00 39 1008.3
20260503224001 11 268 0.0 0.0 0.00 0.00 0.00 39 1008.2
20260503223003 11 270 0.0 0.0 0.00 0.00 0.00 39 1008.3
20260503222012 11 308 0.0 6.4 0.00 0.00 0.00 40 1008.3
20260503214653 12 258 1.6 14.5 0.00 0.00 0.00 40 1008.2
20260503213654 12 78 0.0 3.2 0.00 0.00 0.00 39 1008.4
20260503212718 12 273 1.6 12.9 0.00 0.00 0.00 38 1008.4
20260503211722 12 306 1.6 11.3 0.00 0.00 0.00 39 1008.4
20260503210741 12 288 0.0 6.4 0.00 0.00 0.00 43 1008.4
20260503205727 12 304 1.6 8.0 0.00 0.00 0.00 41 1008.5
20260503203645 11 197 1.6 14.5 0.00 0.00 0.00 46 1008.6
20260503200409 10 269 1.6 12.9 0.00 0.00 0.00 46 1008.9
20260503195349 10 292 1.6 9.7 0.00 0.00 0.00 47 1008.8
20260503194350 10 314 3.2 17.7 0.00 0.00 0.00 46 1009.0
20260503193407 10 311 1.6 17.7 0.00 0.00 0.00 48 1009.0
20260503192425 10 341 1.6 4.8 0.00 0.00 0.00 48 1009.2
20260503191438 11 246 1.6 9.7 0.00 0.00 0.00 47 1009.3
20260503183109 10 61 1.6 9.7 0.00 0.00 0.00 50 1009.7
20260503182059 9 11 1.6 9.7 0.00 0.00 0.00 51 1009.8
20260503181117 9 293 1.6 9.7 0.00 0.00 0.00 50 1009.7
20260503180107 9 307 0.0 8.0 0.00 0.00 0.00 52 1009.8
20260503175033 9 286 0.0 4.8 0.00 0.00 0.00 53 1009.8
20260503174037 9 274 0.0 9.7 0.00 0.00 0.00 52 1009.8
20260503171936 8 288 0.0 8.0 0.00 0.00 0.00 49 1009.9
20260503170948 8 279 1.6 8.0 0.00 0.00 0.00 52 1009.9
20260503110726 3 263 0.0 0.0 0.00 0.00 0.00 89 1010.6